sat.trackr.live / text

‹ back to catalog

STARLINK-5277

NORAD 55269 · 2023-010A

PAYLOAD ACTIVE UNKNOWN

§ Identity

Operator
Country
US
Launch date
2023-01-19
Launch site
AFWTR
Launch vehicle
Mass (kg)
RCS (m²)

Purposes: comms

External: N2YO · Heavens-Above · Gunter

§ Orbital elements

Epoch: 2026-05-25T04:40:51.534624Z

Period
96.11 min
Inclination
69.9988°
Eccentricity
0.0003794
Mean motion
14.98334717 rev/d
Perigee alt
569.4 km
Apogee alt
574.7 km
Semi-major
6,950.2 km
B*
4.9354e-6
RAAN
211.6374°
Arg perigee
266.8243°
Mean anomaly
93.2482°
Rev number
18,452

§ Raw data

STARLINK-52771 55269U 23010A   26145.19504091 -.00000034  00000+0  49354-5 0  99972 55269  69.9988 211.6374 0003794 266.8243  93.2482 14.98334717184521

JSON: /api/v1/satellites/55269 · /tle

For live sub-satellite position, see the globe view (requires WebGL).

§ Visibility from observer

Set your observer location to see the next 7 days of passes ≥ 10°. The values pass through the URL so the page stays shareable.

No JS? Fill the form by hand. The geolocation button needs JavaScript.